This demonstration page uses our WeatherBlox Daily Observations layout. Learn more.

Left ArrowRight Arrow

39.01783, -85.05884

Hourly Observations for October 12, 2020

Temp ( °F °C ) Dew Point ( °F °C ) Humidity (%) Winds ( mph kmh ) Pressure ( in mb ) Visibility ( mi km ) Precip ( " mm )
12:52 am 00:52 Cloudy 67 19.4 62 16.7 84 84 ENE 8 13 29.85 1011 10 16.0934 0 0
1:52 am 01:52 Cloudy 67 19.4 62 16.7 84 84 E 8 13 29.85 1011 10 16.0934 0 0
2:18 am 02:18 Cloudy 66 18.9 62 16.7 87 87 E 9 15 29.84 1011 10 16.0934 0 0
2:42 am 02:42 Cloudy 66 18.9 62 16.7 87 87 E 7 11 29.85 1011 10 16.0934 0 0
2:52 am 02:52 Cloudy 66 18.9 62 16.7 87 87 ENE 7 11 29.85 1011 10 16.0934 0 0
3:52 am 03:52 Cloudy 66 18.9 62 16.7 87 87 E 7 11 29.83 1010 10 16.0934 0 0
4:47 am 04:47 Cloudy 66 19 63 17 88 88 ESE 7 11 29.83 1010 10 16.0934 0 0
4:52 am 04:52 Cloudy 66 18.9 62 16.7 87 87 ESE 8 13 29.82 1010 10 16.0934 0 0
5:25 am 05:25 Cloudy 66 18.9 62 16.7 87 87 ESE 6 9 29.83 1010 10 16.0934 0 0
5:52 am 05:52 Cloudy 66 18.9 61 16.1 84 84 SE 6 9 29.83 1010 10 16.0934 0 0
6:52 am 06:52 Cloudy 65 18.3 61 16.1 87 87 SSE 9 15 29.83 1010 10 16.0934 0 0
7:52 am 07:52 Cloudy 65 18.3 61 16.1 87 87 SSE 9 15 29.83 1010 10 16.0934 0 0
8:52 am 08:52 Cloudy 64 17.8 61 16.1 90 90 SSE 7 11 29.85 1011 8 12.87472 0 0
9:52 am 09:52 Cloudy 65 18.3 61 16.1 87 87 SSE 9 15 29.84 1011 8 12.87472 0 0
10:52 am 10:52 Cloudy with Drizzle 66 18.9 62 16.7 87 87 S 8 13 29.85 1011 2 3.21868 0.001 0.001
10:54 am 10:54 Cloudy with Drizzle 66 18.9 62 16.7 87 87 S 8 13 29.86 1011 2 3.21868 0.001 0.001
11:02 am 11:02 Cloudy 66 18.9 62 16.7 87 87 S 8 13 29.86 1011 7 11.26538 0.001 0.001
11:52 am 11:52 Cloudy 67 19.4 62 16.7 84 84 SSW 7 11 29.85 1011 10 16.0934 0.001 0.001
12:52 pm 12:52 Cloudy 67 19.4 63 17.2 87 87 SSW 7 11 29.82 1010 8 12.87472 0.001 0.001
1:13 pm 13:13 Cloudy 70 21.1 63 17.2 79 79 S 9 15 29.81 1010 10 16.0934 0 0
1:32 pm 13:32 Cloudy 71 21.7 63 17.2 76 76 S 10 17 29.79 1009 10 16.0934 0 0
1:52 pm 13:52 Cloudy 72 22.2 62 16.7 71 71 SSW 12 19 29.78 1009 10 16.0934 0 0
2:52 pm 14:52 Mostly Cloudy 75 23.9 62 16.7 64 64 S 13 20 29.73 1007 10 16.0934 0 0
3:52 pm 15:52 Cloudy 75 23.9 62 16.7 64 64 S 17 28 29.73 1007 10 16.0934 0 0
4:17 pm 16:17 Cloudy 75 23.9 62 16.7 64 64 SSW 10 17 29.72 1006 10 16.0934 0 0
4:52 pm 16:52 Mostly Cloudy 76 24.4 62 16.7 62 62 S 14 22 29.74 1007 10 16.0934 0 0
5:52 pm 17:52 Cloudy 74 23.3 62 16.7 67 67 SSW 7 11 29.74 1007 10 16.0934 0 0
6:52 pm 18:52 Cloudy 73 22.8 62 16.7 69 69 S 7 11 29.73 1007 10 16.0934 0 0
7:52 pm 19:52 Cloudy 71 21.7 64 17.8 79 79 SSW 7 11 29.73 1007 10 16.0934 0.001 0.001
8:06 pm 20:06 Cloudy with Nearby Thunderstorms 71 21.7 64 17.8 79 79 SW 6 9 29.73 1007 8 12.87472 0.01 0.254
8:11 pm 20:11 Cloudy with Light Thunderstorms 70 21.1 64 17.8 82 82 WSW 10 17 29.73 1007 8 12.87472 0.01 0.254
8:18 pm 20:18 Cloudy with Heavy Thunderstorms 68 20 63 17.2 84 84 W 40 65 29.78 1008 2 3.21868 0.01 0.254
8:28 pm 20:28 Windy with Storms Likely 62 16.7 59 15 90 90 WNW 28 44 29.82 1010 1.75 2.816345 0.11 2.794
8:32 pm 20:32 Windy with Storms Likely 60 15.6 57 13.9 90 90 NW 32 52 29.83 1010 3 4.82802 0.12 3.048
8:36 pm 20:36 Cloudy with Light Rain 59 15 55 12.8 87 87 NW 30 48 29.84 1011 7 11.26538 0.12 3.048
8:39 pm 20:39 Cloudy with Light Rain 59 15 54 12.2 83 83 NW 30 48 29.84 1011 10 16.0934 0.12 3.048
8:52 pm 20:52 Cloudy with Light Rain 58 14.4 54 12.2 87 87 WNW 24 39 29.84 1011 9 14.48406 0.12 3.048
9:52 pm 21:52 Cloudy 57 13.9 52 11.1 83 83 NW 15 24 29.88 1012 10 16.0934 0.001 0.001
10:52 pm 22:52 Cloudy 56 13.3 50 10 81 81 NW 20 31 29.92 1013 10 16.0934 0.001 0.001
11:25 pm 23:25 Cloudy 56 13.3 49 9.4 77 77 NW 15 24 29.96 1015 10 16.0934 0 0
11:52 pm 23:52 Partly Cloudy 55 12.8 49 9.4 80 80 NW 15 24 29.96 1015 10 16.0934 0 0

Powered by AerisWeather